Weather History for K08D - May, 2014

Change the Weather History Date:

Friday, May 30, 2014

  Actual Average (KMOT) Record (KMOT)
Temperature  
Mean Temperature 63 °F 59 °F  
Max Temperature 73 °F 71 °F 105 °F (1934)
Min Temperature 53 °F 48 °F 29 °F (1917)
Degree Days  
Heating Degree Days 2    
Cooling Degree Days 0 1  
Month to date cooling degree days 8  
Year to date cooling degree days 9  
Growing Degree Days 13 (Base 50)    
Moisture  
Dew Point 47 °F    
Average Humidity 64    
Maximum Humidity 100    
Minimum Humidity 22    
Precipitation  
Precipitation 0.00 in 0.10 in 2.55 in (1949)
Month to date precipitation 2.40  
Year to date precipitation 5.29  
Sea Level Pressure  
Sea Level Pressure 30.08 in    
Wind  
Wind Speed 5 mph (West)    
Max Wind Speed 13 mph    
Max Gust Speed 16 mph    
Visibility 10 miles    
Events      
T = Trace of Precipitation, MM = Missing Value Source: NWS Daily Summary

Daily Weather History Graph

Daily Weather History Graph

Search for Another Location

Airport or City:

Trip Planner

Search our weather history database for the weather conditions in past years. The results will help you decide how hot, cold, wet, or windy it might be!

Date:

Astronomy

May. 30, 2014 Rise Set
Actual Time 5:54 AM CDT 9:40 PM CDT
Civil Twilight 5:14 AM CDT 10:20 PM CDT
Nautical Twilight 4:20 AM CDT 11:15 PM CDT
Astronomical Twilight 3:00 AM CDT 12:35 AM CDT
Moon 7:45 AM CDT (5/30) 11:12 PM CDT (5/30)
Length of Visible Light 17h 06m
Length of Day
15h 46m
Waxing Crescent, 4% of the Moon is Illuminated
May 30
Waxing Crescent
Jun 5
First Quarter
Jun 12
Full
Jun 19
Last Quarter
Jun 27
New

Hourly Weather History & Observations

Time (CDT) Temp. Dew Point Humidity Pressure Visibility Wind Dir Wind Speed Gust Speed Precip Events Conditions
12:15 AM 59.0 °F 59.0 °F 100% 30.00 in 10.0 mi NW 9.2 mph - N/A   Partly Cloudy
12:35 AM 59.0 °F 59.0 °F 100% 30.04 in 10.0 mi South 5.8 mph - N/A   Scattered Clouds
12:55 AM 59.0 °F 59.0 °F 100% 30.05 in 10.0 mi SW 3.5 mph - N/A   Overcast
1:15 AM 59.0 °F 59.0 °F 100% 30.05 in 10.0 mi Calm Calm - N/A   Overcast
1:35 AM 57.2 °F 57.2 °F 100% 30.05 in 10.0 mi Calm Calm - N/A   Overcast
1:55 AM 57.2 °F 57.2 °F 100% 30.07 in 10.0 mi South 3.5 mph - N/A   Overcast
2:15 AM 57.2 °F 57.2 °F 100% 30.06 in 10.0 mi WSW 4.6 mph - N/A   Overcast
2:35 AM 55.4 °F 55.4 °F 100% 30.06 in 10.0 mi West 3.5 mph - N/A   Mostly Cloudy
2:55 AM 55.4 °F 55.4 °F 100% 30.06 in 10.0 mi West 3.5 mph - N/A   Mostly Cloudy
3:15 AM 55.4 °F 55.4 °F 100% 30.06 in 10.0 mi NNW 4.6 mph - N/A   Mostly Cloudy
3:35 AM 55.4 °F 55.4 °F 100% 30.05 in 10.0 mi NW 5.8 mph - N/A   Mostly Cloudy
3:55 AM 55.4 °F 53.6 °F 94% 30.04 in 10.0 mi NNW 6.9 mph - N/A   Mostly Cloudy
4:15 AM 55.4 °F 53.6 °F 94% 30.05 in 10.0 mi Calm Calm - N/A   Partly Cloudy
4:35 AM 53.6 °F 53.6 °F 100% 30.05 in 10.0 mi Calm Calm - N/A   Mostly Cloudy
4:55 AM 55.4 °F 55.4 °F 100% 30.06 in 10.0 mi Calm Calm - N/A   Mostly Cloudy
5:15 AM 55.4 °F 53.6 °F 94% 30.07 in 10.0 mi West 3.5 mph - N/A   Overcast
5:35 AM 55.4 °F 55.4 °F 100% 30.08 in 10.0 mi SW 4.6 mph - N/A   Overcast
5:55 AM 55.4 °F 55.4 °F 100% 30.07 in 10.0 mi ESE 4.6 mph - N/A   Overcast
6:15 AM 55.4 °F 55.4 °F 100% 30.07 in 10.0 mi NNW 3.5 mph - N/A   Mostly Cloudy
6:35 AM 53.6 °F 53.6 °F 100% 30.07 in 10.0 mi Calm Calm - N/A   Mostly Cloudy
6:55 AM 53.6 °F 53.6 °F 100% 30.08 in 10.0 mi South 3.5 mph - N/A   Mostly Cloudy
7:15 AM 55.4 °F 55.4 °F 100% 30.08 in 10.0 mi SW 5.8 mph - N/A   Mostly Cloudy
7:35 AM 55.4 °F 55.4 °F 100% 30.09 in 10.0 mi SSW 4.6 mph - N/A   Mostly Cloudy
7:55 AM 55.4 °F 55.4 °F 100% 30.10 in 10.0 mi WSW 3.5 mph - N/A   Scattered Clouds
8:15 AM 57.2 °F 57.2 °F 100% 30.10 in 10.0 mi SW 3.5 mph - N/A   Mostly Cloudy
8:35 AM 59.0 °F 57.2 °F 94% 30.10 in 10.0 mi Calm Calm - N/A   Mostly Cloudy
8:55 AM 59.0 °F 55.4 °F 88% 30.10 in 10.0 mi West 3.5 mph - N/A   Mostly Cloudy
9:15 AM 62.6 °F 50.0 °F 63% 30.10 in 10.0 mi WNW 8.1 mph - N/A   Mostly Cloudy
9:35 AM 62.6 °F 46.4 °F 55% 30.10 in 10.0 mi WNW 8.1 mph - N/A   Mostly Cloudy
9:55 AM 62.6 °F 44.6 °F 52% 30.11 in 10.0 mi WNW 5.8 mph - N/A   Mostly Cloudy
10:15 AM 64.4 °F 42.8 °F 45% 30.11 in 10.0 mi WNW 5.8 mph - N/A   Scattered Clouds
10:35 AM 66.2 °F 42.8 °F 43% 30.11 in 10.0 mi NW 5.8 mph - N/A   Partly Cloudy
10:55 AM 66.2 °F 41.0 °F 40% 30.11 in 10.0 mi West 5.8 mph - N/A   Scattered Clouds
11:15 AM 68.0 °F 41.0 °F 37% 30.12 in 10.0 mi WNW 6.9 mph - N/A   Scattered Clouds
11:35 AM 68.0 °F 39.2 °F 35% 30.12 in 10.0 mi NW 4.6 mph - N/A   Scattered Clouds
11:55 AM 69.8 °F 41.0 °F 35% 30.12 in 10.0 mi West 4.6 mph - N/A   Scattered Clouds
12:15 PM 71.6 °F 41.0 °F 33% 30.12 in 10.0 mi Calm Calm - N/A   Mostly Cloudy
12:35 PM 71.6 °F 35.6 °F 27% 30.12 in 10.0 mi WNW 6.9 mph - N/A   Overcast
12:55 PM 71.6 °F 35.6 °F 27% 30.12 in 10.0 mi WNW 9.2 mph - N/A   Mostly Cloudy
1:15 PM 73.4 °F 35.6 °F 25% 30.11 in 10.0 mi NNW 10.4 mph - N/A   Scattered Clouds
1:35 PM 71.6 °F 33.8 °F 25% 30.11 in 10.0 mi NNW 12.7 mph - N/A   Partly Cloudy
1:55 PM 73.4 °F 37.4 °F 27% 30.11 in 10.0 mi NNW 10.4 mph - N/A   Scattered Clouds
2:15 PM 73.4 °F 35.6 °F 25% 30.10 in 10.0 mi NW 8.1 mph - N/A   Scattered Clouds
2:35 PM 73.4 °F 33.8 °F 23% 30.10 in 10.0 mi WNW 6.9 mph - N/A   Partly Cloudy
2:55 PM 73.4 °F 32.0 °F 22% 30.10 in 10.0 mi NNW 9.2 mph 16.1 mph N/A   Clear
3:15 PM 73.4 °F 33.8 °F 23% 30.09 in 10.0 mi NW 9.2 mph - N/A   Partly Cloudy
3:55 PM 73.4 °F 33.8 °F 23% 30.09 in 10.0 mi NNW 5.8 mph - N/A   Clear
4:15 PM 73.4 °F 32.0 °F 22% 30.09 in 10.0 mi NNW 8.1 mph - N/A   Clear
4:35 PM 73.4 °F 37.4 °F 27% 30.08 in 10.0 mi NNW 4.6 mph - N/A   Clear
4:55 PM 73.4 °F 35.6 °F 25% 30.08 in 10.0 mi NNW 6.9 mph - N/A   Clear
5:15 PM 73.4 °F 35.6 °F 25% 30.07 in 10.0 mi North 5.8 mph - N/A   Clear
5:35 PM 73.4 °F 35.6 °F 25% 30.08 in 10.0 mi NE 4.6 mph - N/A   Partly Cloudy
5:55 PM 73.4 °F 37.4 °F 27% 30.07 in 10.0 mi East 4.6 mph - N/A   Clear
6:15 PM 73.4 °F 39.2 °F 29% 30.07 in 10.0 mi ENE 4.6 mph - N/A   Clear
6:35 PM 73.4 °F 41.0 °F 31% 30.06 in 10.0 mi ESE 6.9 mph - N/A   Clear
6:55 PM 73.4 °F 37.4 °F 27% 30.05 in 10.0 mi ENE 6.9 mph - N/A   Clear
7:15 PM 71.6 °F 39.2 °F 31% 30.04 in 10.0 mi East 5.8 mph - N/A   Clear
7:35 PM 71.6 °F 41.0 °F 33% 30.04 in 10.0 mi East 4.6 mph - N/A   Clear
7:55 PM 71.6 °F 42.8 °F 35% 30.05 in 10.0 mi SE 6.9 mph - N/A   Clear
8:15 PM 71.6 °F 46.4 °F 41% 30.05 in 10.0 mi SE 6.9 mph - N/A   Clear
8:55 PM 66.2 °F 46.4 °F 49% 30.06 in 10.0 mi SE 4.6 mph - N/A   Clear
9:15 PM 66.2 °F 46.4 °F 49% 30.06 in 10.0 mi SE 4.6 mph - N/A   Clear
9:35 PM 66.2 °F 44.6 °F 46% 30.07 in 10.0 mi SE 4.6 mph - N/A   Clear
9:55 PM 62.6 °F 51.8 °F 68% 30.07 in 10.0 mi South 5.8 mph - N/A   Clear
10:15 PM 59.0 °F 51.8 °F 77% 30.08 in 10.0 mi SSW 4.6 mph - N/A   Clear
10:35 PM 57.2 °F 53.6 °F 88% 30.09 in 10.0 mi SSW 5.8 mph - N/A   Clear
10:55 PM 57.2 °F 55.4 °F 94% 30.10 in 10.0 mi SW 5.8 mph - N/A   Clear
11:15 PM 57.2 °F 53.6 °F 88% 30.10 in 10.0 mi SSW 9.2 mph - N/A   Clear
11:35 PM 57.2 °F 53.6 °F 88% 30.09 in 10.0 mi SW 5.8 mph - N/A   Clear
11:55 PM 55.4 °F 53.6 °F 94% 30.09 in 10.0 mi SW 4.6 mph - N/A   Clear